Flag for India Weather for the Past 2 Weeks in Thiruvananthapuram, Kerala, India

Now
86 °F

Passing clouds.


Feels Like: 97 °F
Forecast: 77 / 90 °F
Wind: 3 mph from Southwest

Location: Thiruvananthapuram

Current Time: Feb 9, 2016 at 9:25:39 PM

Latest Report: Feb 9, 2016 at 8:30 PM


Visibility: 2 mi

Pressure: 29.89 "Hg

Humidity: 75%

Dew point: 77 °F

Location of ThiruvananthapuramLocation

Historic Weather in Thiruvananthapuram — Graph

°F

Thiruvananthapuram Temperature Yesterday

Maximum temperature yesterday: 91 °F (at 12:30 PM)
Minimum temperature yesterday: 79 °F (at 3:00 AM)
Average temperature yesterday: 85 °F

High & Low Weather Summary for the Past Weeks

 TemperatureHumidityPressure
High91 °F (Jan 28, 1:30 PM)94% (Jan 26, 7:00 AM)29.98 "Hg (Jan 26, 7:00 AM)
Low72 °F (Feb 2, 5:30 AM)38% (Jan 30, 10:00 AM)29.65 "Hg (Feb 3, 5:30 PM)
Average83 °F71%29.86 "Hg
* Reported Jan 25 7:30 PM — Feb 9 8:00 PM, Thiruvananthapuram, Weather by CustomWeather, © 2016

Note: Actual official high and low records may vary slightly from our data, if they occured in-between our weather recording intervals... More about our weather records

Advertising

Thiruvananthapuram Weather History for the Previous 24 Hours

 ConditionsComfort  
Time TempWeatherWind HumidityBarometerVisibility
8:00 PM
Tue, Feb 9
86 °FWarm.24 mph75%29.86 "HgN/A
7:30 PM84 °FPassing clouds.3 mph79%29.83 "Hg2 mi
7:00 PM86 °FScattered clouds.5 mph75%29.86 "Hg2 mi
6:30 PM86 °FScattered clouds.5 mph75%29.83 "Hg2 mi
6:00 PM86 °FScattered clouds.6 mph75%29.83 "Hg2 mi
5:30 PM88 °FScattered clouds.5 mph66%29.80 "Hg2 mi
5:00 PM88 °FScattered clouds.5 mph70%29.80 "Hg2 mi
4:00 PM91 °FHaze.5 mph67%29.77 "Hg2 mi
3:30 PM91 °FHaze.6 mph67%29.77 "Hg2 mi
2:30 PM91 °FHaze.6 mph67%29.80 "Hg2 mi
1:30 PM91 °FHaze.6 mph67%29.83 "Hg3 mi
1:00 PM91 °FHaze.5 mph67%29.83 "Hg2 mi
12:30 PM91 °FHaze.5 mph67%29.86 "Hg2 mi
12:00 PM91 °FHaze.5 mph67%29.86 "Hg2 mi
11:30 AM90 °FHaze.8 mph67%29.89 "Hg2 mi
10:30 AM88 °FHaze.5 mph66%29.92 "Hg2 mi
10:00 AM88 °FHaze.6 mph70%29.92 "Hg2 mi
9:00 AM86 °FHaze.3 mph75%29.92 "Hg1 mi
8:00 AM81 °FFog.5 mph84%29.89 "Hg1 mi
7:30 AM79 °FFog.3 mph89%29.89 "Hg1 mi
6:30 AM77 °FPassing clouds.No wind94%29.86 "Hg2 mi
6:00 AM77 °FPassing clouds.3 mph94%29.86 "Hg2 mi
5:30 AM79 °FPassing clouds.No wind89%29.83 "Hg2 mi
5:00 AM79 °FPassing clouds.3 mph89%29.83 "Hg2 mi
4:30 AM79 °FPassing clouds.No wind89%29.83 "Hg2 mi
4:00 AM81 °FPassing clouds.No wind84%29.83 "Hg2 mi
3:00 AM81 °FPartly cloudy.3 mph84%29.83 "Hg2 mi
2:30 AM81 °FPartly cloudy.5 mph84%29.86 "Hg2 mi
2:00 AM81 °FPartly cloudy.No wind84%29.86 "Hg2 mi
1:30 AM82 °FPartly cloudy.5 mph79%29.86 "Hg2 mi
1:00 AM82 °FPartly cloudy.5 mph79%29.86 "Hg2 mi
12:30 AM82 °FPartly cloudy.No wind79%29.89 "Hg2 mi
12:00 AM82 °FPartly cloudy.No wind79%29.89 "Hg2 mi
11:30 PM
Mon, Feb 8
82 °FPartly cloudy.No wind79%29.89 "Hg2 mi
11:00 PM82 °FPartly cloudy.3 mph79%29.89 "Hg2 mi
10:30 PM84 °FPartly cloudy.3 mph74%29.89 "Hg2 mi
9:30 PM84 °FPartly cloudy.5 mph74%29.89 "Hg2 mi
9:00 PM84 °FPartly cloudy.5 mph74%29.89 "Hg2 mi
Weather by CustomWeather, © 2016

See weather overviewHow to use our weather pages